Погода в Екатеринбурге

Погода в Екатеринбурге : погода сейчас, прогноз погоды и архив. Всё, что Вы хотите узнать о погоде в Екатеринбурге!

Хотите узнать прогноз погоды в Екатеринбурге? Тогда Вам сюда: Погода в Екатеринбурге

Поиск расширенной информации на нашем сайте:

Другие новости

Новости СМИ2

Главная страница сайта

Новости сайта

03.07.2017

Напоминаем, что на нашем специализированном сайте Метеоцентр.Азия вы можете получить высокодетализированные автоматические прогнозы погоды по пунктам России, СНГ и мира в авиационном формате (включающие направление и скорость ветра, видимость, явления погоды, количество и форму облачности, нижнюю и верхнюю границу облачности).


Погода в Екатеринбурге - сегодня

Время (UTC), дата Ветер
(°,м/с) 
Видим.   Явления Облачность Т
(°С)
Тd
(°С)
f(%) Тe
(°С)
Pmin
(гПа)
dP
(гПа)
Po
(мм)
O2
(г/м3)
Тmin Tmax R s Состояние
почвы
21 18.09.17 280 (З) 10 км    10/8 600 м верхняя 
[Sc|Cs]
+7.6 +3.7 76 +8  1020.8  0.6  740  290           
00 19.09.17 090 (В) 10 км    10/5 600 м верхняя 
[Sc|Cs]
+6.7 +3.5 80 +8  1021.5  0.6  740  291           
03 19.09.17 140 (ЮВ) 20000 м  в посл. час ливневой дождь  10/10 600 м кучево-дожд. 
[Cb cap]
+6.4 +3.8 83 +7  1021.8  0.3  741  291  +6        влажная 
06 19.09.17 100 (В) 4000 м  слаб. ливневой дождь  10/10 600 м кучево-дожд. 
[Cb calv]
+7.8 +6 88 +8  1020.9  -0.7  740  289           
09 19.09.17 150 (ЮВ) 10 км  {ливн. осадки}  10/10 600 м 
[Sc]
+12.1 +8.4 78 +12  1018  -2.3  738  283           
12 19.09.17 110 (В) 20000 м  {ливн. осадки}  10/0 средняя, верхняя 
[Ac trans|Cs]
+14.8 +9.1 69 +15  1016  -1.7  737  280           
15 19.09.17 130 (ЮВ) 10 км    10/0 верхняя 
[Cs]
+12.2 +8.6 79 +12  1015.2  -1  736  283    +14.9  0.3     
18 19.09.17 150 (ЮВ) 10 км    10/0 верхняя 
[Ci fib]
+11.4 +8.9 85 +12  1013.3  -1.9  735  283           
21 19.09.17 190 (Ю) 10 км  слаб. ливневой дождь  10/8 600 м кучево-дожд., средняя 
[Cb calv|Ac As]
+14.9 +11.2 79 +18  1011.5  -1.3  734  278           
00 20.09.17 240 (ЮЗ) 10 км  {ливн. осадки}  10/10 600 м кучево-дожд. 
[Cb calv]
+15.9 +9.4 65 +18  1010.9  -0.5  734  278           
03 20.09.17 240 (ЮЗ) 20000 м    10/0 верхняя 
[Cc]
+15.5 +9.4 67 +17  1011.4  0.4  734  278  +11.3    0.3    влажная 
06 20.09.17 290 (З) 6-12{13}  20000 м    8/8 600 м 
[Sc]
+16.6 +7.1 53 +16  1012.6  1.2  735  278           
09 20.09.17 280 (З) 5-10{13}  20000 м    8/4 600 м верхняя 
[Cu Sc|Cs]
+18.1 +6.9 48 +18  1013.8  1.3  736  277           
12 20.09.17 270 (З) 4{11}  20000 м    9/6 600 м средняя 
[Sc|Ac As]
+16.5 +6.1 50 +17  1014.9  737  279           
15 20.09.17 290 (З) 3{10}  10 км  {ливн. осадки}  9/9 600 м кучево-дожд. 
[Cb calv]
+15 +6.8 58 +15  1016.1  0.9  737  280    +18.4       
18 20.09.17 280 (З) 10 км  {ливн. осадки}  10/10 600 м кучево-дожд. 
[Cb calv]
+12.8 +7.1 68 +12  1016.9  0.6  738  283           
21 20.09.17 290 (З) 10 км  {ливн. осадки}  9/9 600 м кучево-дожд. 
[Cb calv]
+11.5 +7.6 77 +11  1017.4  0.3  738  284           
00 21.09.17 280 (З) 10 км  {ливн. осадки}  9/9 600 м кучево-дожд. 
[Cb calv]
+11.5 +7.6 77 +12  1018.1  0.7  738  284           
03 21.09.17 290 (З) 20000 м    9/9 600 м кучево-дожд. 
[Cb calv]
+11.5 +7.9 79 +11  1019  0.9  739  284  +10.9        влажная 
06 21.09.17 170 (Ю) 10 км  слаб. ливневой дождь  10/10 600 м кучево-дожд. 
[Cb cap]
+9.3 +7.3 87 +10  1021.1  1.7  740  287  +9.3         
09 21.09.17 360 (С) 20000 м    10/10 600 м кучево-дожд. 
[Cb cap]
+9 +5.8 80 +10  1022.9  1.6  742  288           
12 21.09.17 030 (СВ) 20000 м    10/10 600 м кучево-дожд. 
[Cb cap]
+8.2 +4.8 79 +9  1024.5  1.5  743  290           
15 21.09.17 070 (В) 10 км    10/10 600 м кучево-дожд. 
[Cb cap]
+7.4 +3.7 77 +8  1026.3  1.6  744  291    +11.6     
18 21.09.17 тихо ()   10 км  слаб. ливневой дождь  10/10 600 м кучево-дожд. 
[Cb cap]
+6.3 +4.3 87 +6  1027.7  1.2  745  293           
21 21.09.17 090 (В) 10 км  {ливн. осадки}  10/10 600 м кучево-дожд. 
[Cb cap]
+5.7 +3.4 85 +7  1028.7  0.9  746  294           
Время (UTC), дата Ветер
(°,м/с) 
Видим.   Явления Облачность Т
(°С)
Тd
(°С)
f(%) Тe
(°С)
Pmin
(гПа)
dP
(гПа)
Po
(мм)
O2
(г/м3)
Тmin Tmax R s Состояние
почвы

Для получения пояснительной информации подведите курсор к названию столбца.

ПОГОДА в Екатеринбурге - архив

Всё, что Вы хотите узнать о погоде в Екатеринбурге - удобно и подробно!

Выберите нужную дату (начиная с 1 января 2015* года) и нажмите кнопку "Найти".
Будут отображены архивные сводки погоды по пункту Екатеринбург, начиная с указанной даты.


Отображать данные в формате CSV (для использования в таблицах Excel)


Внимание! Наш архив погоды предназначен исключительно для личного некоммерческого использования в познавательных целях. Если Вам необходимы официальные справки о состоянии погоды (для производственных, юридических, коммерческих и т.п. целей), обращайтесь в органы Росгидромета.

*Примечание: данная дата относится к архиву по метеостанциям СССР (Россия, СНГ, Балтия).
Архив по метеостанциям Зарубежной Европы и Азии (кроме Китая) хранится 10 дней, по другим регионам земного шара (Китай, Африка, Америка, Австралия, Океания) - 1 день.

Екатеринбург - район местоположения метеостанции


Название, широта, долгота, высота метеостанции:
Екатеринбург (город) 56.8°ш. 60.6°д. 283 м над ур. моря [Российская Федерация]

Дополнительная информация

В oтличие oт бoльшинства пoгoдных сайтoв мы публикуем пoдрoбную метеoинфoрмацию в детальнoм прoфессиoнальнoм фoрмате.

Характеристики температуры и влажнoсти вoздуха измеряются на высoте 2 м в тени вдали oт зданий и деревьев.
Скoрoсть ветра измеряется на высoте 10 м (на урoвне рoста челoвека скoрoсть ветра ниже в 1.5-2 раза). Если метеoстанция нахoдится в гoрoде или в лесу, тo скoрoсть ветра занижена на 2-4 м/с пo сравнению с oткрытым местoм. Скoрoсть ветра над акватoриями крупных рек и oзёр, а также на вершинах хoлмoв на 2-5 м/с выше, чем в oбычных услoвиях.
Атмoсфернoе давление в разных тoчках местнoсти мoжет значительнo oтличаться oт давления на метеoстанции, в зависимoсти oт услoвий рельефа (при пoдъёме на 10 м давление пoнижается примернo на 1 мм рт.ст.).